Preview of NWS' New Version of Forecast
This preview is not operational and should not be used for support decisions.

Regional Weather Roundup (RWR)

Issued by National Weather Service (NWS)

                            
000
ASUS44 KJAN 242010
RWRMS 

MISSISSIPPI HOURLY WEATHER ROUNDUP
NATIONAL WEATHER SERVICE JACKSON MS
300 PM CDT MON JUN 24 2019

NOTE: "FAIR: INDICATES FEW OR NO CLOUDS BELOW 12,000 FEET WITH NO
SIGNIFICANT WEATHER AND/OR OBSTRUCTIONS TO VISIBILITY.

MSZ001>002-007>008-010>013-018>021-025>028-034>036-242100-
NORTHWEST MISSISSIPPI
  
CITY           SKY/WX    TMP DP  RH WIND       PRES   REMARKS
BATESVILLE     FAIR      82  68  61 W8G14     29.91S                  
CLARKSDALE     SUNNY     86  72  62 VRB6G13   29.91S HX  92           
CLEVELAND      FAIR      82  70  68 SW9       29.92F                  
GREENWOOD      FAIR      84  69  60 SW9       29.93S                  
GREENVILLE     SUNNY    N/A N/A N/A W14       29.93S                  
OLIVE BRANCH   PTSUNNY   81  64  57 SW12G20   29.90R                  
OXFORD         FAIR      84  64  51 W9G18     29.93S                  
TUNICA           N/A     81  68  65 SW12      29.91S                  
WINONA         FAIR      83  66  57 W7        29.94R                  
$$

MSZ003>006-009-014>017-022>024-029>033-037>039-242100-
NORTHEAST MISSISSIPPI
  
CITY           SKY/WX    TMP DP  RH WIND       PRES   REMARKS
ABERDEEN       FOG       84  84 100 NW12      29.92S VSB 1   HX 104   
COLUMBUS AFB   FAIR      87  70  55 SW10      29.91S HX  92           
CORINTH        MOCLDY    82  68  61 SW8G15    29.89S                  
GOLDN TRIANGLE FAIR      86  70  58 SW8       29.93R HX  90           
STARKVILLE     FAIR      82  70  65 W6        29.94S                  
TUPELO         FAIR      86  68  54 SW9       29.90S                  
$$

MSZ040-058-242100-
CENTRAL MISSISSIPPI
  
CITY           SKY/WX    TMP DP  RH WIND       PRES   REMARKS
JACKSON INTL   PTSUNNY   85  68  56 W6        29.96S                  
JACKSON HAWKNS FAIR      84  71  65 W9        29.97R                  
MADISON        FAIR      82  70  65 SW7       29.96S                  
MERIDIAN KEY   PTSUNNY   84  71  65 SW9       29.95R                  
MERIDIAN NAS   CLOUDY    86  69  56 W10       29.95R HX  90           
RAYMOND        FAIR      84  73  70 W8        29.96S HX  91           
VICKSBURG VKS  CLEAR     84  70  61 VRB5      29.95F                  
$$

MSZ059>079-242100-
SOUTH MISSISSIPPI
  
CITY           SKY/WX    TMP DP  RH WIND       PRES   REMARKS
BROOKHAVEN     FAIR      81  70  69 E6        29.98S                  
HATTIESBURG    LGT RAIN  82  70  66 S8        29.97F                  
LAUREL         MOCLDY    81  71  71 S8        29.96R                  
MCCOMB         PTSUNNY   79  69  71 S15G21    29.96F                  
NATCHEZ          N/A     82  70  65 SW6       29.97                   
PINE BELT      FAIR      80  71  74 VRB5      29.97F                  
$$

MSZ080>082-242100-
COASTAL MISSISSIPPI
  
CITY           SKY/WX    TMP DP  RH WIND       PRES   REMARKS
BILOXI         FAIR      87  70  57 SW12      29.98F HX  92           
PASCAGOULA     FAIR      90  73  57 SW7       29.98F HX  98           
GULFPORT       FAIR      87  68  52 W7        29.98F HX  90           
$$

LAZ007>009-015>016-023>026-242100-
NORTHEAST LOUISIANA
  
CITY           SKY/WX    TMP DP  RH WIND       PRES   REMARKS
BASTROP        FAIR      82  68  62 SW6       29.95F                  
TALLULAH/VBURG FAIR      84  71  65 VRB5      29.95F                  
VIDALIA        FAIR      83  69  63 S14       29.95F                  
$$